| time (UTC) | temp C | wind direction | speed KPH | gust KPH | rain 1hr cm | rain 24hr cm | rain mn cm | humidity % | barometer mb |
| 20260506134505 | 19 | 359 | 0.0 | 0.0 | 0.00 | 0.03 | 0.03 | 100 | 1021.2 |
| 20260506133009 | 19 | 359 | 0.0 | 0.0 | 0.00 | 0.03 | 0.03 | 100 | 1021.4 |
| 20260506131506 | 19 | 359 | 0.0 | 0.0 | 0.00 | 0.03 | 0.03 | 100 | 1021.7 |
| 20260506130008 | 19 | 359 | 0.0 | 0.0 | 0.00 | 0.03 | 0.03 | 100 | 1021.6 |
| 20260506124506 | 19 | 359 | 0.0 | 0.0 | 0.00 | 0.03 | 0.03 | 100 | 1021.9 |
| 20260506121506 | 19 | 359 | 0.0 | 0.0 | 0.00 | 0.03 | 0.03 | 100 | 1021.6 |
| 20260506120007 | 19 | 359 | 0.0 | 0.0 | 0.00 | 0.03 | 0.03 | 100 | 1021.7 |
| 20260506113007 | 19 | 359 | 0.0 | 0.0 | 0.00 | 0.03 | 0.03 | 100 | 1021.8 |
| 20260506111504 | 19 | 359 | 0.0 | 0.0 | 0.00 | 0.03 | 0.03 | 100 | 1021.9 |
| 20260506103004 | 19 | 359 | 0.0 | 0.0 | 0.00 | 0.03 | 0.03 | 100 | 1021.7 |
| 20260506101508 | 19 | 359 | 0.0 | 0.0 | 0.00 | 0.03 | 0.03 | 100 | 1021.9 |
| 20260506100004 | 19 | 359 | 0.0 | 0.0 | 0.00 | 0.03 | 0.03 | 100 | 1021.6 |
| 20260506094507 | 19 | 359 | 0.0 | 0.0 | 0.00 | 0.03 | 0.03 | 100 | 1021.8 |
| 20260506091507 | 20 | 359 | 0.0 | 0.0 | 0.00 | 0.03 | 0.03 | 100 | 1021.8 |
| 20260506084504 | 20 | 359 | 0.0 | 0.0 | 0.00 | 0.03 | 0.03 | 100 | 1021.5 |
| 20260506083007 | 20 | 359 | 0.0 | 0.0 | 0.00 | 0.03 | 0.03 | 100 | 1021.4 |
| 20260506073005 | 20 | 359 | 0.0 | 0.0 | 0.00 | 0.03 | 0.03 | 100 | 1021.9 |
| 20260506061507 | 21 | 359 | 0.0 | 0.0 | 0.00 | 0.00 | 0.00 | 94 | 1022.2 |
| 20260506044508 | 21 | 359 | 0.0 | 0.0 | 0.00 | 0.00 | 0.00 | 74 | 1023.2 |
| 20260506043005 | 21 | 359 | 0.0 | 0.0 | 0.00 | 0.00 | 0.00 | 72 | 1023.3 |
| 20260506041509 | 21 | 359 | 0.0 | 0.0 | 0.00 | 0.00 | 0.00 | 71 | 1023.4 |
| 20260506040004 | 21 | 180 | 0.0 | 0.0 | 0.00 | 0.00 | 0.00 | 72 | 1023.8 |
| 20260506031508 | 22 | 262 | 0.0 | 0.0 | 0.00 | 0.00 | 0.00 | 61 | 1024.2 |
| 20260506024507 | 22 | 224 | 0.0 | 0.0 | 0.00 | 0.00 | 0.00 | 63 | 1024.7 |
| 20260506023005 | 22 | 224 | 0.0 | 0.0 | 0.00 | 0.00 | 0.00 | 67 | 1025.0 |
| 20260506021509 | 21 | 224 | 0.0 | 0.0 | 0.00 | 0.00 | 0.00 | 71 | 1025.2 |
| 20260506020005 | 21 | 224 | 0.0 | 0.0 | 0.00 | 0.00 | 0.00 | 78 | 1025.5 |
| 20260506013006 | 21 | 224 | 0.0 | 0.0 | 0.00 | 0.00 | 0.00 | 92 | 1025.9 |
| 20260506011503 | 21 | 224 | 0.0 | 0.0 | 0.00 | 0.00 | 0.00 | 96 | 1026.3 |
| 20260506010005 | 20 | 224 | 0.0 | 0.0 | 0.00 | 0.00 | 0.00 | 98 | 1026.4 |
| 20260506004503 | 20 | 224 | 0.0 | 0.0 | 0.00 | 0.00 | 0.00 | 99 | 1026.5 |
| 20260506003006 | 20 | 224 | 0.0 | 0.0 | 0.00 | 0.00 | 0.00 | 99 | 1026.8 |
| 20260506001503 | 20 | 224 | 0.0 | 0.0 | 0.00 | 0.00 | 0.00 | 100 | 1027.1 |
| 20260506000005 | 20 | 224 | 0.0 | 0.0 | 0.00 | 0.00 | 0.00 | 100 | 1027.1 |
| 20260505234503 | 19 | 224 | 0.0 | 0.0 | 0.00 | 0.00 | 0.00 | 100 | 1027.0 |
| 20260505233007 | 19 | 224 | 0.0 | 0.0 | 0.00 | 0.00 | 0.00 | 100 | 1026.9 |
| 20260505230028 | 18 | 224 | 0.0 | 0.0 | 0.00 | 0.00 | 0.00 | 100 | 1026.8 |
| 20260505224504 | 17 | 224 | 0.0 | 0.0 | 0.00 | 0.00 | 0.00 | 100 | 1027.0 |
| 20260505223008 | 17 | 224 | 0.0 | 0.0 | 0.00 | 0.00 | 0.00 | 100 | 1027.0 |
| 20260505221505 | 17 | 224 | 0.0 | 0.0 | 0.00 | 0.00 | 0.00 | 100 | 1027.2 |
| 20260505220003 | 16 | 224 | 0.0 | 0.0 | 0.00 | 0.00 | 0.00 | 100 | 1027.3 |
| 20260505214504 | 16 | 224 | 0.0 | 0.0 | 0.00 | 0.00 | 0.00 | 100 | 1027.2 |
| 20260505213003 | 15 | 224 | 0.0 | 0.0 | 0.00 | 0.00 | 0.00 | 100 | 1027.1 |
| 20260505211507 | 15 | 224 | 0.0 | 0.0 | 0.00 | 0.00 | 0.00 | 100 | 1027.1 |
| 20260505210004 | 15 | 224 | 0.0 | 0.0 | 0.00 | 0.00 | 0.00 | 100 | 1027.0 |
| 20260505204506 | 15 | 224 | 0.0 | 0.0 | 0.00 | 0.00 | 0.00 | 100 | 1027.1 |
| 20260505203003 | 15 | 224 | 0.0 | 0.0 | 0.00 | 0.00 | 0.00 | 100 | 1027.1 |
| 20260505201507 | 15 | 224 | 0.0 | 0.0 | 0.00 | 0.00 | 0.00 | 100 | 1027.2 |
| 20260505200004 | 15 | 224 | 0.0 | 0.0 | 0.00 | 0.00 | 0.00 | 100 | 1027.1 |
| 20260505194506 | 15 | 224 | 0.0 | 0.0 | 0.00 | 0.00 | 0.00 | 100 | 1026.9 |
| 20260505193003 | 15 | 224 | 0.0 | 0.0 | 0.00 | 0.00 | 0.00 | 100 | 1027.0 |
| 20260505191506 | 15 | 224 | 0.0 | 0.0 | 0.00 | 0.00 | 0.00 | 100 | 1026.9 |
| 20260505190004 | 15 | 224 | 0.0 | 0.0 | 0.00 | 0.00 | 0.00 | 100 | 1026.7 |
| 20260505183003 | 15 | 224 | 0.0 | 0.0 | 0.00 | 0.00 | 0.00 | 99 | 1026.5 |
| 20260505181506 | 16 | 224 | 0.0 | 0.0 | 0.00 | 0.00 | 0.00 | 97 | 1026.7 |
| 20260505180004 | 16 | 224 | 0.0 | 0.0 | 0.00 | 0.00 | 0.00 | 94 | 1026.5 |
| 20260505174506 | 16 | 224 | 0.0 | 0.0 | 0.00 | 0.00 | 0.00 | 91 | 1026.3 |
| 20260505173004 | 16 | 224 | 0.0 | 0.0 | 0.00 | 0.00 | 0.00 | 88 | 1026.5 |
| 20260505170004 | 16 | 224 | 0.0 | 0.0 | 0.00 | 0.00 | 0.00 | 80 | 1026.4 |
| 20260505164505 | 16 | 224 | 0.0 | 0.0 | 0.00 | 0.00 | 0.00 | 77 | 1026.5 |
| 20260505163003 | 17 | 224 | 0.0 | 0.0 | 0.00 | 0.00 | 0.00 | 74 | 1026.6 |
| 20260505161506 | 16 | 224 | 0.0 | 0.0 | 0.00 | 0.00 | 0.00 | 70 | 1026.6 |
| 20260505153003 | 17 | 224 | 0.0 | 0.0 | 0.00 | 0.00 | 0.00 | 69 | 1026.6 |
| 20260505151507 | 17 | 224 | 0.0 | 0.0 | 0.00 | 0.00 | 0.00 | 67 | 1026.7 |